Showing default

CENTISPACE-1 S11, 62580

Orbit data source: Space-Track

CENTISPACE-1 S11, 62580 is a payload satellite owned by Centispace (CN) in LEO that was launched on Mon, 13 Jan 2025 UTC via a JIELONG-3 launch vehicle from the Yellow Sea Launch Area, China (YSLA). Payload-class satellites include a variety of spacecraft equipped with specific instruments for various scientific and technological missions. These include communications satellites like Starlink; space stations such as the ISS; scientific satellites like the Hubble; Earth observation satellites from companies like Planet Labs, Umbra, and HawkEye 360; GPS; miniature CubeSats for education and research; and military/defense satellites.

Loading next visibility...
Identifier
62580, 2025-007F
Orbit
LEO
Country
Flag of CNCN / PRC
Related business
Manufacturer
DFH Shenzhen
Mission
Operational Commercial Nav/Com
Bus & Motor
WK01, Unknown motor
Mass
140 kg wet, 140 kg dry
Launch date (UTC)
2025-01-13 (1 year ago)
Launch vehicle
JIELONG-3
Launch site
Yellow Sea Launch Area, China (YSLA)
Object type
Payload
Rocket body
Debris
Shape & HBR
Box + 2 Pan, 1.0 m
Radar Cross Section
0.833 m², Medium (>0.1 m² and < 1m²)

Expand to show TLE details & history
Last TLE update: 16 hours ago

TLE from 16 hours ago
0 CENTISPACE-1 S11
1 62580U 25007F   26034.09630783 -.00000037  00000-0  76972-4 0  9992
2 62580  54.9774  42.2202 0009125 254.3704 105.6254 13.98403258 56178
Epoch: 2026-02-03T02:18Z
TLE epoch observation values (Epoch: 2026-02-03T02:18:40.996Z)
Latitude
0.00001°
Longitude
-125.73276°
Altitude
902.154 km
Speed
7.401 km/s
True Right ascension
02h 48m 52s
True Declination
0° 00' 00"
Sunlit
Object was in daylight at epoch
Visualization orbit readout
Latitude
Unknown
Longitude
Unknown
Altitude
Unknown
Speed
Unknown
Apparent Right ascension
Unknown
Apparent Declination
Unknown
Sunlit
N/A
Visualization observer readout
Local Sidereal Time
20:15:51
Azimuth
Unknown
Elevation
Unknown
Doppler factor
Unknown
Orbital elements
Apogee altitude
905.939 km
Perigee altitude
892.657 km
Semi-major axis
7,277.435 km
Eccentricity
0.00091
Inclination
54.9774°
RAAN
42.2202°
Arg. of periapsis
254.3704°
True anomaly
105.72607°
Mean anomaly
105.6254°
Eccentric anomaly
105.67574°
Mean motion
3.49603 °/min
Orbital period
102.97 mins
BSTAR
0.000076972
Loading maneuver chart data...
Computing Atmospheric mass density...
Loading historical data...
Loading historical data...
Loading historical data...
Loading historical data...
Loading historical data...
Loading historical data...
Loading historical data...

Documentation

Showing up to 5 results
|